Location: Brachbach
(49.1847°N, 9.7240°E)
Time: 09:50:57
(UTC+00:00)

FENGYUN 3A - Pass Details

Date: 13 August 2024
Orbit: 821 x 834 km, 98.6° (Epoch: 16 September)

Event Time Altitude Azimuth Distance (km) Brightness Sun altitude
Rises 02:12:30 0° 12° (NNE) 3,396 7.9 -16.4°
Reaches altitude 10° 02:14:53 10° 9° (N) 2,457 7.0 -16.2°
Maximum altitude 02:20:16 64° 290° (WNW) 926 3.8 -15.6°
Enters shadow 02:23:39 23° 215° (SW) 1,710 4.7 -15.2°
